User: anonymous   Login
Location: Unspecified
(0.0000°N, 0.0000°E)
Time: 22:22:32
(UTC+00:00)
Language:

Alouette 1 - Orbit

View from above orbital plane
View from above orbital plane
View from above satellite
View from above satellite

Ground track
Ground track

The orbit data is extracted from the following two-line orbital elements,

1 00424U 62049A   15028.19617336  .00000087  00000-0  90124-4 0  6164
2 00424 080.4653 048.2277 0023686 158.8418 271.6867 13.68988517612291
Epoch (UTC): 28 January 2015 04:42:29
Eccentricity: 0.0023686
inclination: 80.4653°
perigee height: 986 km
apogee height: 1020 km
right ascension of ascending node: 48.2277°
argument of perigee: 158.8418°
revolutions per day: 13.68988517
mean anomaly at epoch: 271.6867°
orbit number at epoch: 61229

The dashed part of the orbit path shows where the satellite is in the earth's shadow,  

DLR